Snowfall_Accumulation
0.0 0.0 0.0 0.0 0.0 0.0 0.0 0.0 0.0 0.0 0.0 0.0 0.0 0.0 0.0 0.0 0.0 0.0 0.0 0.0 0.0 0.0 0.0 0.0 0.0 0.0 0.0 0.0 0.0 0.0 0.0 0.0 0.0 0.0 0.0 0.0 0.0 0.0 0.0 0.0 0.0 0.0 0.0 0.0
0.0 0.0 0.0 0.0 0.0 0.0 0.0 0.0 0.0 0.0 0.0 0.0 0.0 0.0 0.0 0.0 0.0 0.0 0.0 0.0 0.0 0.0 0.0 0.0 0.0 0.0 0.0 0.0 0.0 0.0 0.0 0.0 0.0 0.0 0.0 0.0 0.0 0.0 0.0 0.0 0.0 0.0 0.0 0.0
0.0 0.0 0.0 0.0 0.0 0.0 0.0 0.0 0.0 0.0 0.0 0.0 0.0 0.0 0.0 0.0 0.0 0.0 0.0 0.0 0.0 0.0 0.0 0.0 0.0 0.0 0.0 0.0 0.0 0.0 0.0 0.0 0.0 0.0 0.0 0.0 0.0 0.0 0.0 0.0 0.0 0.0 0.0 0.0
0.0 0.0 0.0 0.0 0.0 0.0 0.0 0.0 0.0 0.0 0.0 0.0 0.0 0.0 0.0 0.0 0.0 0.0 0.0 0.0 0.0 0.0 0.0 0.0 0.0 0.0 0.0 0.0 0.0 0.0 0.0 0.0 0.0 0.0 0.0 0.0 0.0 0.0 0.0 0.0 0.0 0.0 0.0 0.0
0.0 0.0 0.0 0.0 0.0 0.0 0.0 0.0 0.0 0.0 0.0 0.0 0.0 0.0 0.0 0.0 0.0 0.0 0.0 0.0 0.0 0.0 0.0 0.0 0.0 0.0 0.0 0.0 0.0 0.0 0.0 0.0 0.0 0.0 0.0 0.0 0.0 0.0 0.0 0.0 0.0 0.0 0.0 0.0
0.0 0.0 0.0 0.0 0.0 0.0 0.0 0.0 0.0 0.0 0.0 0.1 0.0 0.0 0.0 0.0 0.0 0.0 0.0 0.0 0.0 0.0 0.0 0.0 0.0 0.0 0.0 0.0 0.0 0.0 0.0 0.0 0.0 0.0 0.0 0.0 0.0 0.0 0.0 0.0 0.0 0.0 0.0 0.0
0.0 0.0 0.0 0.0 0.0 0.0 0.0 0.0 0.2 0.2 0.7 0.2 0.0 0.0 0.0 0.0 0.0 0.0 0.0 0.0 0.0 0.0 0.0 0.0 0.0 0.0 0.0 0.0 0.0 0.0 0.0 0.0 0.0 0.0 0.0 0.0 0.0 0.0 0.0 0.0 0.0 0.0 0.0 0.0
0.0 0.0 0.0 0.0 0.0 0.0 0.0 0.0 0.2 1.4 0.9 0.2 0.0 0.1 0.0 0.0 0.0 0.0 0.0 0.0 0.0 0.0 0.0 0.0 0.0 0.0 0.0 0.0 0.0 0.0 0.0 0.0 0.0 0.0 0.0 0.0 0.0 0.0 0.0 0.0 0.0 0.0 0.0 0.0
0.0 0.0 0.0 0.0 0.0 0.0 0.0 0.0 0.0 0.1 2.1 1.1 0.0 0.0 0.0 0.0 0.0 0.0 0.0 0.0 0.0 0.0 0.0 0.0 0.0 0.0 0.0 0.0 0.0 0.0 0.0 0.0 0.0 0.0 0.0 0.0 0.0 0.0 0.0 0.0 0.0 0.0 0.0 0.0
0.0 0.0 0.0 0.0 0.0 0.0 0.0 0.0 0.1 0.4 3.0 1.9 0.0 0.0 0.0 0.0 0.0 0.0 0.0 0.0 0.0 0.0 0.0 0.0 0.0 0.0 0.0 0.0 0.0 0.0 0.0 0.0 0.0 0.0 0.0 0.0 0.0 0.0 0.0 0.0 0.0 0.0 0.0 0.0
0.0 0.0 0.0 0.0 0.0 0.0 0.0 0.0 0.0 0.0 0.1 1.2 1.1 0.0 0.0 0.0 0.0 0.0 0.0 0.0 0.0 0.0 0.0 0.0 0.0 0.0 0.0 0.0 0.0 0.0 0.0 0.0 0.0 0.0 0.0 0.0 0.0 0.0 0.0 0.0 0.0 0.0 0.0 0.0
0.0 0.0 1.6 0.0 0.0 0.0 0.0 0.0 0.0 0.6 0.2 0.3 0.6 0.6 0.0 0.0 0.0 0.0 0.0 0.0 0.0 0.0 0.0 0.0 0.0 0.0 0.0 0.0 0.0 0.0 0.0 0.0 0.0 0.0 0.0 0.0 0.0 0.0 0.0 0.0 0.0 0.0 0.0 0.0
0.0 2.7 7.0 3.0 0.6 0.0 0.0 0.0 0.0 0.0 0.2 2.2 3.9 0.7 0.0 0.0 0.0 0.0 0.0 0.0 0.0 0.0 0.0 0.0 0.0 0.0 0.0 0.0 0.0 0.0 0.0 0.0 0.0 0.0 0.0 0.0 0.0 0.0 0.0 0.0 0.0 0.0 0.0 0.0
nan 1.3 2.1 2.7 0.5 0.0 0.3 0.1 0.0 0.0 5.4 1.1 0.7 0.1 0.0 0.0 0.0 0.0 0.0 0.0 0.0 0.0 0.0 0.0 0.0 0.0 0.0 0.0 0.0 0.0 0.0 0.0 0.0 0.0 0.0 0.0 0.0 0.0 0.0 0.0 0.0 0.0 0.0 0.1
0.0 6.1 0.4 0.1 0.4 0.6 0.5 0.7 0.3 1.0 0.1 1.3 0.0 0.0 0.0 0.0 0.0 0.0 0.0 0.0 0.0 0.0 0.0 0.0 0.0 0.0 0.0 0.0 0.0 0.0 0.0 0.0 0.0 0.0 0.0 0.0 0.0 0.0 0.0 0.1 0.0 0.0 0.1 0.1
0.1 6.8 0.6 3.2 0.1 0.3 2.2 0.0 0.0 0.0 0.0 0.1 0.0 0.0 0.0 0.0 0.0 0.0 0.0 0.0 0.0 0.0 0.0 0.0 0.0 0.0 0.0 0.0 0.0 0.0 0.0 0.0 0.0 0.0 0.0 0.0 0.0 0.0 0.0 0.1 0.1 0.2 0.3 0.4
0.8 3.9 9.6 16.9 0.3 1.1 13.3 0.2 0.0 0.0 0.0 0.0 0.3 0.0 0.0 0.0 0.0 0.0 0.0 0.0 0.0 0.0 0.0 0.0 0.0 0.0 0.0 0.0 0.0 0.0 0.0 0.0 0.0 0.0 0.1 0.1 0.1 0.1 0.1 0.1 0.3 0.5 0.7 0.8
2.3 5.9 9.5 26.1 11.0 45.1 2.0 0.0 0.0 0.0 0.0 0.0 0.0 0.0 0.0 0.0 0.0 0.0 0.0 0.0 0.0 0.0 0.0 0.0 0.0 0.0 0.0 0.0 0.0 0.0 0.0 0.0 0.0 0.1 0.3 0.1 0.2 0.5 0.4 0.8 1.0 1.2 1.3 1.5
0.1 1.3 20.2 39.9 21.2 2.1 0.1 0.1 0.0 0.2 0.3 0.0 0.0 0.0 0.0 0.0 0.0 0.0 0.0 0.0 0.0 0.0 0.0 0.0 0.0 0.0 0.0 0.0 0.0 0.0 0.1 0.1 0.2 0.2 0.3 0.3 1.1 2.9 2.1 3.9 2.3 2.0 2.6 2.1
0.6 0.9 4.7 32.5 40.5 29.8 1.2 0.3 0.1 0.2 2.8 0.7 0.1 0.1 0.1 0.1 0.7 0.0 0.0 0.0 0.0 0.0 0.0 0.0 0.0 0.0 0.0 0.0 0.0 0.1 0.1 0.1 0.3 0.3 0.3 0.6 1.8 4.0 3.4 2.2 2.9 3.0 2.6 2.4
8.4 15.3 21.7 17.9 27.4 11.2 0.4 0.1 0.0 4.7 1.9 0.2 0.1 0.2 0.4 1.0 0.2 0.0 0.0 0.0 0.0 0.0 0.0 0.0 0.0 0.0 0.0 0.1 0.1 0.1 0.1 0.1 0.1 0.2 1.0 1.5 1.3 3.4 2.2 2.8 2.1 3.4 3.7 2.2
3.3 11.3 22.9 20.1 30.0 33.7 0.2 0.0 0.5 0.6 0.1 0.1 0.1 0.0 0.1 0.0 0.0 0.0 0.0 0.0 0.0 0.0 0.0 0.0 0.1 0.1 0.1 0.2 0.3 0.2 0.1 0.1 0.2 0.6 1.2 2.4 3.7 3.2 3.5 6.2 3.7 4.7 4.5 4.5
5.9 1.2 6.0 2.7 4.9 0.2 0.3 0.3 0.1 0.0 0.1 0.1 0.0 0.0 0.0 0.0 0.0 0.0 0.0 0.0 0.0 0.0 0.0 0.1 0.1 0.1 0.1 0.2 0.6 1.4 0.2 0.3 0.8 3.3 4.5 5.0 4.6 4.5 5.0 7.5 4.5 5.7 4.7 5.5
0.5 0.1 2.1 2.4 0.1 0.1 0.0 0.0 0.0 0.0 0.0 0.0 0.0 0.0 0.1 0.1 0.1 0.3 0.2 0.1 0.1 0.1 0.2 0.3 0.6 0.7 0.5 0.6 0.7 0.9 0.8 1.1 6.6 6.9 4.3 3.6 4.6 3.4 4.3 5.4 6.0 8.0 6.1 6.2
0.3 0.2 0.9 1.3 0.1 0.0 0.0 0.0 0.0 0.0 0.1 0.1 0.1 0.1 0.0 0.1 0.6 0.3 0.4 0.3 0.2 0.2 0.4 0.6 0.9 0.8 1.0 1.0 1.1 1.7 2.0 3.3 4.4 4.5 2.8 4.0 5.4 6.1 4.2 3.6 7.7 6.5 4.3 9.2
0.0 0.0 0.2 1.4 0.0 0.0 0.0 0.0 0.0 0.1 0.0 0.0 0.1 0.2 0.2 0.2 0.2 0.4 0.3 0.2 0.4 0.8 1.0 1.3 1.4 1.7 1.8 2.1 2.4 3.4 5.3 5.2 5.3 3.3 4.2 4.2 4.2 3.7 3.8 4.2 4.6 nan nan nan
Water_Equivalent
0.00 0.00 0.00 0.00 0.00 0.00 0.00 0.00 0.00 0.00 0.00 0.00 0.00 0.00 0.00 0.00 0.00 0.00 0.00 0.00 0.00 0.00 0.00 0.00 0.00 0.00 0.00 0.00 0.00 0.00 0.00 0.00 0.00 0.00 0.00 0.00 0.00 0.00 0.00 0.00 0.00 0.00 0.00 0.00
0.00 0.00 0.00 0.00 0.00 0.00 0.00 0.00 0.00 0.00 0.00 0.00 0.00 0.00 0.00 0.00 0.00 0.00 0.00 0.00 0.00 0.00 0.00 0.00 0.00 0.00 0.00 0.00 0.00 0.00 0.00 0.00 0.00 0.00 0.00 0.00 0.00 0.00 0.00 0.00 0.00 0.00 0.00 0.00
0.00 0.00 0.00 0.00 0.00 0.00 0.00 0.00 0.00 0.00 0.00 0.00 0.00 0.00 0.00 0.00 0.00 0.00 0.00 0.00 0.00 0.00 0.00 0.00 0.00 0.00 0.00 0.00 0.00 0.00 0.00 0.00 0.00 0.00 0.00 0.00 0.00 0.00 0.00 0.00 0.00 0.00 0.00 0.00
0.00 0.00 0.00 0.00 0.00 0.00 0.00 0.00 0.00 0.00 0.00 0.00 0.00 0.00 0.00 0.00 0.00 0.00 0.00 0.00 0.00 0.00 0.00 0.00 0.00 0.00 0.00 0.00 0.00 0.00 0.00 0.00 0.00 0.00 0.00 0.00 0.00 0.00 0.00 0.00 0.00 0.00 0.00 0.00
0.00 0.00 0.00 0.00 0.00 0.00 0.00 0.00 0.00 0.00 0.00 0.00 0.00 0.00 0.00 0.00 0.00 0.00 0.00 0.00 0.00 0.00 0.00 0.00 0.00 0.00 0.00 0.00 0.00 0.00 0.00 0.00 0.00 0.00 0.00 0.00 0.00 0.00 0.00 0.00 0.00 0.00 0.00 0.00
0.00 0.00 0.00 0.00 0.00 0.00 0.00 0.00 0.00 0.00 0.00 0.02 0.00 0.00 0.00 0.00 0.00 0.00 0.00 0.00 0.00 0.00 0.00 0.00 0.00 0.00 0.00 0.00 0.00 0.00 0.00 0.00 0.00 0.00 0.00 0.00 0.00 0.00 0.00 0.00 0.00 0.00 0.00 0.00
0.00 0.00 0.00 0.00 0.00 0.00 0.00 0.00 0.05 0.07 0.18 0.06 0.00 0.00 0.00 0.00 0.00 0.00 0.00 0.00 0.00 0.00 0.00 0.00 0.00 0.00 0.00 0.00 0.00 0.00 0.00 0.00 0.00 0.00 0.00 0.00 0.00 0.00 0.00 0.00 0.00 0.00 0.00 0.00
0.00 0.00 0.00 0.00 0.00 0.00 0.00 0.00 0.06 0.27 0.20 0.05 0.00 0.02 0.00 0.00 0.00 0.00 0.00 0.00 0.00 0.00 0.00 0.00 0.00 0.00 0.00 0.00 0.00 0.00 0.00 0.00 0.00 0.00 0.00 0.00 0.00 0.00 0.00 0.00 0.00 0.00 0.00 0.00
0.00 0.00 0.00 0.00 0.00 0.00 0.00 0.00 0.00 0.02 0.39 0.28 0.00 0.00 0.00 0.00 0.00 0.00 0.00 0.00 0.00 0.00 0.00 0.00 0.00 0.00 0.00 0.00 0.00 0.00 0.00 0.00 0.00 0.00 0.00 0.00 0.00 0.00 0.00 0.00 0.00 0.00 0.00 0.00
0.00 0.00 0.00 0.00 0.00 0.00 0.00 0.00 0.03 0.09 0.54 0.32 0.00 0.00 0.00 0.00 0.00 0.00 0.00 0.00 0.00 0.00 0.00 0.00 0.00 0.00 0.00 0.00 0.00 0.00 0.00 0.00 0.00 0.00 0.00 0.00 0.00 0.00 0.00 0.00 0.00 0.00 0.00 0.00
0.00 0.00 0.00 0.00 0.00 0.00 0.00 0.00 0.00 0.00 0.04 0.25 0.22 0.01 0.00 0.00 0.00 0.00 0.00 0.00 0.00 0.00 0.00 0.00 0.00 0.00 0.00 0.00 0.00 0.00 0.00 0.00 0.00 0.00 0.00 0.00 0.00 0.00 0.00 0.00 0.00 0.00 0.00 0.00
0.00 0.00 0.41 0.00 0.00 0.00 0.00 0.00 0.00 0.14 0.04 0.08 0.17 0.12 0.00 0.00 0.00 0.00 0.00 0.00 0.00 0.00 0.00 0.00 0.00 0.00 0.00 0.00 0.00 0.00 0.00 0.00 0.00 0.00 0.00 0.00 0.00 0.00 0.00 0.00 0.00 0.00 0.01 0.01
0.00 0.68 1.48 0.64 0.11 0.00 0.00 0.00 0.00 0.00 0.07 0.44 0.74 0.13 0.00 0.00 0.00 0.00 0.00 0.00 0.00 0.00 0.00 0.00 0.00 0.00 0.00 0.00 0.00 0.00 0.00 0.00 0.00 0.00 0.00 0.00 0.00 0.00 0.00 0.00 0.01 0.01 0.01 0.01
nan 0.37 0.52 0.59 0.09 0.00 0.07 0.02 0.00 0.01 1.11 0.25 0.17 0.03 0.00 0.00 0.00 0.00 0.00 0.00 0.00 0.00 0.00 0.00 0.00 0.00 0.00 0.00 0.00 0.00 0.00 0.00 0.00 0.00 0.00 0.00 0.00 0.00 0.00 0.01 0.01 0.01 0.02 0.02
0.00 1.71 0.11 0.04 0.08 0.13 0.11 0.15 0.06 0.20 0.02 0.24 0.00 0.00 0.00 0.00 0.00 0.00 0.00 0.00 0.00 0.00 0.00 0.00 0.00 0.00 0.00 0.00 0.00 0.00 0.00 0.00 0.00 0.00 0.00 0.00 0.00 0.00 0.01 0.02 0.02 0.02 0.03 0.03
0.03 1.89 0.18 0.83 0.04 0.07 0.43 0.00 0.00 0.00 0.00 0.01 0.00 0.00 0.00 0.00 0.00 0.00 0.00 0.00 0.00 0.00 0.00 0.00 0.00 0.00 0.00 0.00 0.00 0.00 0.00 0.00 0.00 0.00 0.00 0.00 0.00 0.01 0.02 0.02 0.04 0.05 0.05 0.06
0.31 1.31 2.38 3.17 0.08 0.23 1.98 0.06 0.00 0.00 0.00 0.00 0.08 0.00 0.00 0.00 0.00 0.00 0.00 0.00 0.00 0.00 0.00 0.00 0.00 0.00 0.00 0.00 0.00 0.00 0.00 0.00 0.00 0.01 0.02 0.02 0.01 0.03 0.02 0.03 0.06 0.08 0.11 0.12
0.82 1.92 2.61 4.69 2.05 5.59 0.41 0.00 0.00 0.00 0.00 0.00 0.01 0.01 0.00 0.00 0.00 0.00 0.00 0.00 0.00 0.00 0.00 0.00 0.00 0.00 0.00 0.00 0.00 0.00 0.00 0.00 0.01 0.03 0.06 0.03 0.04 0.09 0.08 0.12 0.15 0.16 0.17 0.20
0.03 0.36 2.97 5.60 2.90 0.40 0.02 0.01 0.01 0.04 0.06 0.02 0.01 0.00 0.00 0.00 0.00 0.00 0.00 0.00 0.00 0.00 0.00 0.00 0.00 0.00 0.00 0.00 0.00 0.01 0.02 0.02 0.03 0.04 0.05 0.06 0.19 0.41 0.28 0.54 0.30 0.26 0.35 0.27
0.16 0.24 1.19 5.05 5.38 3.63 0.18 0.06 0.03 0.05 0.44 0.15 0.04 0.02 0.02 0.02 0.14 0.00 0.00 0.00 0.00 0.00 0.00 0.00 0.00 0.00 0.00 0.00 0.00 0.02 0.01 0.02 0.05 0.05 0.06 0.11 0.27 0.53 0.44 0.29 0.37 0.41 0.38 0.33
1.14 2.14 2.90 2.51 3.71 1.79 0.10 0.03 0.00 0.62 0.28 0.04 0.03 0.06 0.09 0.21 0.07 0.00 0.00 0.00 0.00 0.00 0.00 0.00 0.00 0.00 0.00 0.01 0.02 0.02 0.01 0.02 0.01 0.04 0.16 0.22 0.19 0.45 0.28 0.37 0.30 0.42 0.48 0.27
0.43 1.33 2.89 2.54 3.72 4.10 0.05 0.01 0.08 0.11 0.02 0.02 0.03 0.00 0.01 0.00 0.00 0.00 0.00 0.00 0.00 0.00 0.00 0.00 0.01 0.01 0.01 0.02 0.04 0.02 0.02 0.01 0.03 0.09 0.16 0.31 0.49 0.44 0.47 0.90 0.51 0.69 0.61 0.61
0.72 0.20 0.84 0.44 0.83 0.06 0.08 0.08 0.02 0.01 0.03 0.02 0.01 0.00 0.00 0.01 0.00 0.00 0.00 0.00 0.00 0.00 0.01 0.02 0.02 0.02 0.02 0.03 0.07 0.15 0.03 0.04 0.10 0.47 0.71 0.71 0.64 0.63 0.65 1.03 0.58 0.83 0.70 0.84
0.09 0.04 0.38 0.36 0.02 0.02 0.00 0.00 0.00 0.01 0.00 0.00 0.01 0.01 0.02 0.01 0.01 0.05 0.04 0.02 0.01 0.02 0.03 0.04 0.07 0.09 0.06 0.07 0.08 0.10 0.08 0.13 1.11 1.06 0.54 0.44 0.58 0.45 0.55 0.76 0.88 1.24 0.92 0.87
0.07 0.05 0.22 0.27 0.02 0.00 0.00 0.00 0.00 0.01 0.02 0.03 0.03 0.02 0.01 0.02 0.09 0.05 0.06 0.05 0.03 0.03 0.05 0.06 0.10 0.07 0.09 0.09 0.10 0.16 0.18 0.37 0.60 0.65 0.31 0.50 0.77 0.88 0.54 0.45 0.82 0.74 0.50 1.10
0.00 0.00 0.03 0.20 0.00 0.00 0.00 0.00 0.01 0.01 0.01 0.01 0.02 0.04 0.03 0.04 0.03 0.05 0.05 0.03 0.05 0.09 0.10 0.12 0.13 0.14 0.12 0.16 0.19 0.28 0.57 0.58 0.62 0.37 0.54 0.55 0.55 0.52 0.49 0.51 0.51 nan nan nan
SL_Ratio
nan nan nan nan nan nan nan nan nan nan nan nan nan nan nan nan nan nan nan nan nan nan nan nan nan nan nan nan nan nan nan nan nan nan nan nan nan nan nan nan nan nan nan nan
nan nan nan nan nan nan nan nan nan nan nan nan nan nan nan nan nan nan nan nan nan nan nan nan nan nan nan nan nan nan nan nan nan nan nan nan nan nan nan nan nan nan nan nan
nan nan nan nan nan nan nan nan nan nan nan nan nan nan nan nan nan nan nan nan nan nan nan nan nan nan nan nan nan nan nan nan nan nan nan nan nan nan nan nan nan nan nan nan
nan nan nan nan nan nan nan nan nan nan nan nan nan 0.0 nan nan nan nan nan nan nan nan nan nan nan nan nan nan nan nan nan nan nan nan nan nan nan nan nan nan nan nan nan nan
nan nan nan nan nan nan nan nan nan nan nan nan nan nan nan nan nan nan nan nan nan nan nan nan nan nan nan nan nan nan nan nan nan nan nan nan nan nan nan nan nan nan nan nan
nan nan nan nan nan nan nan nan nan nan nan 3.5 nan nan nan nan nan nan nan nan nan nan nan nan nan nan nan nan nan nan nan nan nan nan nan nan nan nan nan nan nan nan nan nan
nan nan nan nan nan nan nan nan 3.9 3.6 4.0 3.6 nan 3.3 nan nan nan nan nan nan nan nan nan nan nan nan nan nan nan nan nan nan nan nan nan nan nan nan nan nan nan nan nan nan
nan nan nan nan nan nan nan nan 3.4 5.2 4.2 3.3 nan 3.8 nan nan nan nan nan nan nan nan nan nan nan nan nan nan nan nan nan nan nan nan nan nan nan nan nan nan nan nan nan nan
nan nan nan nan nan nan nan nan nan 4.5 5.3 4.1 nan nan nan nan nan nan nan nan nan nan nan nan nan nan nan nan nan nan nan nan nan nan nan nan nan nan nan nan nan nan nan nan
nan 3.3 nan nan nan nan nan nan 3.9 4.0 5.6 6.1 nan nan nan nan nan nan nan nan nan nan nan nan nan nan nan nan nan nan nan nan nan nan nan nan nan nan nan nan nan nan nan nan
nan nan nan nan nan nan nan nan nan nan 3.5 4.6 4.8 4.2 nan nan nan nan nan nan nan nan nan nan nan nan nan nan nan nan nan nan nan nan nan nan nan nan nan nan nan nan nan nan
nan 3.3 3.9 nan nan nan nan nan nan 4.0 4.7 3.8 3.8 4.9 nan nan nan nan nan nan nan nan nan nan nan nan nan nan nan nan nan nan nan nan nan nan nan nan nan 2.9 nan nan 2.3 2.6
nan 3.9 4.7 4.6 5.5 nan nan nan nan nan 3.0 5.0 5.2 4.9 nan nan nan nan nan nan nan nan nan nan nan nan nan nan nan nan nan nan nan nan nan nan nan nan nan 3.0 2.4 2.6 2.4 2.6
nan 3.4 3.9 4.6 5.0 nan 4.1 3.2 5.0 2.8 4.9 4.2 4.2 3.2 nan nan nan nan nan nan nan nan nan nan nan nan nan nan nan nan nan nan nan nan nan nan nan nan nan 2.2 2.3 2.4 3.1 3.4
0.0 3.6 3.7 3.7 4.4 4.5 4.8 4.9 4.5 4.8 4.2 5.5 3.1 nan nan nan nan nan nan nan nan nan nan nan nan nan nan nan nan nan nan nan nan nan nan nan nan nan 2.4 2.5 2.6 2.5 3.2 4.1
2.7 3.6 3.2 3.8 3.6 4.0 5.2 2.5 5.0 10.0 5.0 5.0 nan 0.0 nan nan nan nan nan nan nan nan nan nan nan nan nan nan nan nan nan nan nan nan nan nan 3.3 3.1 2.7 3.2 3.9 4.5 6.0 6.3
2.6 3.0 4.1 5.3 4.1 4.8 6.7 3.3 nan nan nan nan 4.2 3.3 nan nan nan nan nan nan nan nan nan nan nan nan nan nan nan nan nan nan nan 3.2 3.2 3.4 3.6 4.0 3.9 4.9 5.8 6.5 6.9 7.0
2.8 3.1 3.6 5.6 5.4 8.1 4.7 nan nan nan nan 3.3 3.3 3.2 3.6 nan nan 2.5 nan nan nan nan nan nan nan nan nan nan nan nan nan 3.3 3.8 3.9 4.4 4.5 5.1 5.7 5.9 6.7 7.0 7.4 7.6 7.5
3.3 3.7 6.8 7.1 7.3 5.4 4.2 4.7 4.5 4.6 5.3 3.1 3.2 2.5 3.1 nan nan nan nan nan nan nan nan nan nan nan nan nan nan 3.6 4.5 4.5 4.8 5.0 5.4 5.6 6.0 7.2 7.3 7.2 7.6 7.8 7.6 7.6
3.8 3.7 4.0 6.4 7.5 8.2 6.3 5.0 4.0 3.4 6.4 4.7 3.1 3.2 3.3 3.2 4.9 nan nan nan nan nan nan nan nan nan nan nan 4.0 4.7 5.6 5.4 5.6 5.5 5.7 5.8 6.5 7.4 7.8 7.7 7.9 7.3 7.0 7.3
7.3 7.2 7.5 7.1 7.4 6.3 3.9 3.8 5.0 7.5 6.7 4.5 3.6 3.6 5.0 4.6 3.2 3.6 nan nan nan nan nan nan 3.3 nan 0.0 5.1 5.3 6.4 5.8 6.3 6.0 6.3 6.2 6.7 6.9 7.5 7.8 7.6 6.9 8.0 7.6 8.1
7.8 8.5 7.9 7.9 8.1 8.2 4.2 4.1 7.0 5.3 4.2 3.4 4.1 5.0 4.0 nan nan nan nan nan nan 0.0 0.0 3.8 5.8 5.7 6.2 6.2 7.4 7.0 6.4 6.5 7.4 6.8 7.5 7.6 7.4 7.4 7.4 7.0 7.4 6.9 7.3 7.4
8.2 6.3 7.1 6.2 5.9 3.6 3.8 4.1 3.5 3.2 3.7 4.0 3.8 3.8 nan 4.2 nan nan nan nan 0.0 0.0 4.4 5.4 6.5 6.7 6.3 6.8 7.8 9.1 7.9 8.1 8.1 6.9 6.3 7.0 7.2 7.1 7.6 7.3 7.8 6.9 6.7 6.6
5.0 3.3 5.5 6.6 4.6 4.3 3.3 nan nan 3.3 4.0 nan 3.6 4.0 4.4 4.9 5.0 4.9 4.9 5.2 5.7 5.7 6.5 7.7 7.6 7.4 8.5 8.4 9.0 9.0 9.2 8.4 5.9 6.5 7.8 8.3 8.0 7.5 7.8 7.1 6.9 6.4 6.6 7.2
3.9 3.2 4.1 4.9 3.5 5.0 nan nan 0.0 3.5 3.8 4.2 4.3 4.3 5.0 5.1 6.2 5.4 6.5 5.9 6.5 8.1 9.2 9.1 9.3 10.6 11.0 11.4 11.3 10.3 11.2 9.0 7.2 6.9 8.9 8.0 7.0 7.0 7.8 8.1 9.4 8.8 8.6 8.4
nan 4.0 5.3 7.0 nan nan 5.0 nan 3.5 3.9 5.0 4.1 5.1 5.9 5.3 5.0 6.0 7.3 7.2 6.6 7.7 9.7 10.4 10.8 10.6 12.0 14.1 13.2 12.6 12.1 9.4 8.9 8.6 9.0 7.7 7.7 7.6 7.2 7.7 8.2 9.0 nan nan nan